METOP-C

Last updated on Sun Dec 14 2025 00:02:24 GMT+0000 (Coordinated Universal Time)

1 43689U 18087A 25347.31442447 .00000273 00000+0 14486-3 0 9991 2 43689 98.6931 45.0754 0001215 38.4614 321.6649 14.21484914368420
UTC large
Height (km)
Speed (km/s)
/
Latitude / Longitude
Inclination (degrees)
Orbital Period (minutes)
Azimuth
Elevation
Range (km)
Doppler Factor

Next 0 passes for location: London (51.5072 / 0.1276)

Sorry there are no passes over London.